Location: Newark
(48.4472°N, 1.4892°E)
Time: 09:38:41
(UTC+00:00)

Transit 4A - Pass Details

Date: 17 January 2021
Orbit: 866 x 978 km, 66.8° (Epoch: 26 February)

Event Time Altitude Azimuth Distance (km) Brightness Sun altitude
Exits shadow 03:19:02 23° 52° (NE) 1,901 9.9 -42.4°
Drops below altitude 10° 03:22:30 10° 85° (E) 2,633 10.9 -41.8°
Sets 03:25:29 0° 98° (E) 3,553 11.7 -41.3°
